contact:dominique.lefevre@mio.osupytheas.fr, maurice.libes@osupytheas.fr, didier.mallarino@osupytheas.fr
Project:EMSO http://www.emso-fr.org/EMSO-France
Depth: 2436.0 m
Title:EMSO Ligure Ouest : Data MII capteur OXYGEN
DateTime,Latitude,Longitude,Optode-Type,Optode_Serial,Oxygen,Saturation_Oxygen,Temperature
DateTime,Latitude,Longitude,Optode-Type,Optode_Serial,µmol.l-1,%,degC
2019-06-14T00:01:07,42.805,6.029,4330,1995,194.875,59.597,13.289
2019-06-14T00:04:07,42.805,6.029,4330,1995,194.855,59.591,13.289
2019-06-14T00:07:07,42.805,6.029,4330,1995,194.821,59.581,13.289
2019-06-14T00:10:07,42.805,6.029,4330,1995,194.868,59.595,13.290
2019-06-14T00:13:07,42.805,6.029,4330,1995,194.883,59.599,13.289
2019-06-14T00:16:07,42.805,6.029,4330,1995,194.854,59.591,13.289
2019-06-14T00:19:07,42.805,6.029,4330,1995,194.905,59.607,13.289
2019-06-14T00:22:07,42.805,6.029,4330,1995,194.905,59.606,13.289
2019-06-14T00:25:07,42.805,6.029,4330,1995,194.872,59.596,13.289
2019-06-14T00:28:07,42.805,6.029,4330,1995,194.883,59.599,13.289
2019-06-14T00:31:07,42.805,6.029,4330,1995,194.852,59.591,13.290
2019-06-14T00:34:07,42.805,6.029,4330,1995,194.880,59.600,13.290
2019-06-14T00:37:07,42.805,6.029,4330,1995,194.862,59.593,13.289
2019-06-14T00:40:07,42.805,6.029,4330,1995,194.840,59.588,13.290
2019-06-14T00:43:07,42.805,6.029,4330,1995,194.815,59.580,13.290
2019-06-14T00:46:07,42.805,6.029,4330,1995,194.808,59.578,13.290
2019-06-14T00:49:07,42.805,6.029,4330,1995,194.817,59.580,13.290
2019-06-14T00:52:07,42.805,6.029,4330,1995,194.867,59.596,13.290
2019-06-14T00:55:07,42.805,6.029,4330,1995,194.785,59.570,13.289
2019-06-14T00:58:07,42.805,6.029,4330,1995,194.830,59.584,13.289
2019-06-14T01:01:07,42.805,6.029,4330,1995,194.882,59.599,13.289
2019-06-14T01:04:07,42.805,6.029,4330,1995,194.872,59.596,13.289
2019-06-14T01:07:07,42.805,6.029,4330,1995,194.876,59.598,13.289
2019-06-14T01:10:07,42.805,6.029,4330,1995,194.863,59.593,13.289
2019-06-14T01:13:07,42.805,6.029,4330,1995,194.896,59.603,13.289
2019-06-14T01:16:07,42.805,6.029,4330,1995,194.884,59.600,13.289
2019-06-14T01:19:07,42.805,6.029,4330,1995,194.890,59.602,13.289
2019-06-14T01:22:07,42.805,6.029,4330,1995,194.801,59.574,13.289
2019-06-14T01:25:07,42.805,6.029,4330,1995,194.830,59.583,13.289
2019-06-14T01:28:07,42.805,6.029,4330,1995,194.845,59.587,13.289
2019-06-14T01:31:07,42.805,6.029,4330,1995,194.824,59.580,13.288
2019-06-14T01:34:07,42.805,6.029,4330,1995,194.831,59.583,13.289
2019-06-14T01:37:07,42.805,6.029,4330,1995,194.847,59.587,13.288
2019-06-14T01:40:07,42.805,6.029,4330,1995,194.829,59.582,13.289
2019-06-14T01:43:07,42.805,6.029,4330,1995,194.855,59.589,13.288
2019-06-14T01:46:07,42.805,6.029,4330,1995,194.870,59.594,13.288
2019-06-14T01:49:07,42.805,6.029,4330,1995,194.810,59.577,13.289
2019-06-14T01:52:07,42.805,6.029,4330,1995,194.762,59.562,13.289
2019-06-14T01:55:07,42.805,6.029,4330,1995,194.796,59.572,13.289
2019-06-14T01:58:07,42.805,6.029,4330,1995,194.813,59.577,13.289
2019-06-14T02:01:07,42.805,6.029,4330,1995,194.745,59.556,13.288
2019-06-14T02:04:07,42.805,6.029,4330,1995,194.738,59.555,13.289
2019-06-14T02:07:07,42.805,6.029,4330,1995,194.757,59.561,13.289
2019-06-14T02:10:07,42.805,6.029,4330,1995,194.767,59.563,13.289
2019-06-14T02:13:07,42.805,6.029,4330,1995,194.758,59.561,13.289
2019-06-14T02:16:07,42.805,6.029,4330,1995,194.744,59.557,13.289
2019-06-14T02:19:07,42.805,6.029,4330,1995,194.775,59.566,13.289
2019-06-14T02:22:07,42.805,6.029,4330,1995,194.801,59.575,13.289
2019-06-14T02:25:07,42.805,6.029,4330,1995,194.721,59.550,13.289
2019-06-14T02:28:07,42.805,6.029,4330,1995,194.718,59.549,13.289
2019-06-14T02:31:07,42.805,6.029,4330,1995,194.722,59.551,13.290
2019-06-14T02:34:07,42.805,6.029,4330,1995,194.716,59.548,13.289
2019-06-14T02:37:07,42.805,6.029,4330,1995,194.777,59.567,13.289
2019-06-14T02:40:07,42.805,6.029,4330,1995,194.757,59.562,13.290
2019-06-14T02:43:07,42.805,6.029,4330,1995,194.785,59.570,13.289
2019-06-14T02:46:07,42.805,6.029,4330,1995,194.726,59.552,13.290
2019-06-14T02:49:07,42.805,6.029,4330,1995,194.743,59.558,13.290
2019-06-14T02:52:07,42.805,6.029,4330,1995,194.714,59.549,13.290
2019-06-14T02:55:07,42.805,6.029,4330,1995,194.726,59.551,13.289
2019-06-14T02:58:07,42.805,6.029,4330,1995,194.761,59.563,13.290
2019-06-14T03:01:07,42.805,6.029,4330,1995,194.796,59.573,13.290
2019-06-14T03:04:07,42.805,6.029,4330,1995,194.718,59.551,13.291
2019-06-14T03:07:07,42.805,6.029,4330,1995,194.741,59.557,13.290
2019-06-14T03:10:07,42.805,6.029,4330,1995,194.739,59.557,13.290
2019-06-14T03:13:07,42.805,6.029,4330,1995,194.681,59.538,13.289
2019-06-14T03:16:07,42.805,6.029,4330,1995,194.761,59.563,13.289
2019-06-14T03:19:07,42.805,6.029,4330,1995,194.749,59.558,13.289
2019-06-14T03:22:07,42.805,6.029,4330,1995,194.673,59.535,13.289
2019-06-14T03:25:07,42.805,6.029,4330,1995,194.678,59.537,13.289
2019-06-14T03:28:07,42.805,6.029,4330,1995,194.685,59.538,13.289
2019-06-14T03:31:07,42.805,6.029,4330,1995,194.732,59.554,13.289
2019-06-14T03:34:07,42.805,6.029,4330,1995,194.694,59.541,13.289
2019-06-14T03:37:07,42.805,6.029,4330,1995,194.692,59.541,13.289
2019-06-14T03:40:07,42.805,6.029,4330,1995,194.744,59.555,13.288
2019-06-14T03:43:07,42.805,6.029,4330,1995,194.797,59.572,13.288
2019-06-14T03:46:07,42.805,6.029,4330,1995,194.775,59.565,13.288
2019-06-14T03:49:07,42.805,6.029,4330,1995,194.697,59.541,13.288
2019-06-14T03:52:07,42.805,6.029,4330,1995,194.726,59.550,13.288
2019-06-14T03:55:07,42.805,6.029,4330,1995,194.720,59.548,13.288
2019-06-14T03:58:07,42.805,6.029,4330,1995,194.721,59.549,13.289
2019-06-14T04:01:07,42.805,6.029,4330,1995,194.728,59.550,13.288
2019-06-14T04:04:07,42.805,6.029,4330,1995,194.734,59.552,13.288
2019-06-14T04:07:07,42.805,6.029,4330,1995,194.762,59.561,13.288
2019-06-14T04:10:07,42.805,6.029,4330,1995,194.774,59.565,13.289
2019-06-14T04:13:07,42.805,6.029,4330,1995,194.760,59.561,13.288
2019-06-14T04:16:07,42.805,6.029,4330,1995,194.807,59.575,13.289
2019-06-14T04:19:07,42.805,6.029,4330,1995,194.842,59.586,13.288
2019-06-14T04:22:07,42.805,6.029,4330,1995,194.770,59.564,13.288
2019-06-14T04:25:07,42.805,6.029,4330,1995,194.845,59.587,13.289
2019-06-14T04:28:07,42.805,6.029,4330,1995,194.847,59.588,13.289
2019-06-14T04:31:07,42.805,6.029,4330,1995,194.825,59.581,13.289
2019-06-14T04:34:07,42.805,6.029,4330,1995,194.854,59.590,13.289
2019-06-14T04:37:07,42.805,6.029,4330,1995,194.862,59.594,13.290
2019-06-14T04:40:07,42.805,6.029,4330,1995,194.865,59.594,13.289
2019-06-14T04:43:07,42.805,6.029,4330,1995,194.848,59.589,13.289
2019-06-14T04:46:07,42.805,6.029,4330,1995,194.872,59.597,13.290
2019-06-14T04:49:07,42.805,6.029,4330,1995,194.843,59.587,13.289
2019-06-14T04:52:07,42.805,6.029,4330,1995,194.864,59.594,13.290
2019-06-14T04:55:07,42.805,6.029,4330,1995,194.857,59.593,13.290
2019-06-14T04:58:07,42.805,6.029,4330,1995,194.848,59.590,13.290
2019-06-14T05:01:07,42.805,6.029,4330,1995,194.793,59.572,13.289
2019-06-14T05:04:07,42.805,6.029,4330,1995,194.783,59.569,13.289
2019-06-14T05:07:07,42.805,6.029,4330,1995,194.828,59.583,13.289
2019-06-14T05:10:07,42.805,6.029,4330,1995,194.836,59.586,13.290
2019-06-14T05:13:07,42.805,6.029,4330,1995,194.842,59.588,13.290
2019-06-14T05:16:07,42.805,6.029,4330,1995,194.821,59.582,13.290
2019-06-14T05:19:07,42.805,6.029,4330,1995,194.855,59.591,13.289
2019-06-14T05:22:07,42.805,6.029,4330,1995,194.827,59.583,13.289
2019-06-14T05:25:07,42.805,6.029,4330,1995,194.871,59.597,13.290
2019-06-14T05:28:07,42.805,6.029,4330,1995,194.800,59.575,13.290
2019-06-14T05:31:07,42.805,6.029,4330,1995,194.829,59.583,13.289
2019-06-14T05:34:07,42.805,6.029,4330,1995,194.828,59.583,13.289
2019-06-14T05:37:07,42.805,6.029,4330,1995,194.833,59.584,13.289
2019-06-14T05:40:07,42.805,6.029,4330,1995,194.893,59.602,13.289
2019-06-14T05:43:07,42.805,6.029,4330,1995,194.847,59.588,13.289
2019-06-14T05:46:07,42.805,6.029,4330,1995,194.838,59.584,13.288
2019-06-14T05:49:07,42.805,6.029,4330,1995,194.853,59.590,13.289
2019-06-14T05:52:07,42.805,6.029,4330,1995,194.911,59.607,13.288
2019-06-14T05:55:07,42.805,6.029,4330,1995,194.923,59.610,13.288
2019-06-14T05:58:07,42.805,6.029,4330,1995,194.902,59.604,13.288
2019-06-14T06:01:07,42.805,6.029,4330,1995,194.916,59.608,13.288
2019-06-14T06:04:07,42.805,6.029,4330,1995,194.890,59.600,13.288
2019-06-14T06:07:07,42.805,6.029,4330,1995,194.905,59.605,13.288
2019-06-14T06:10:07,42.805,6.029,4330,1995,194.874,59.595,13.288
2019-06-14T06:13:07,42.805,6.029,4330,1995,194.851,59.589,13.288
2019-06-14T06:16:07,42.805,6.029,4330,1995,194.874,59.595,13.288
2019-06-14T06:19:07,42.805,6.029,4330,1995,194.889,59.600,13.288
2019-06-14T06:22:07,42.805,6.029,4330,1995,194.829,59.582,13.289
2019-06-14T06:25:07,42.805,6.029,4330,1995,194.902,59.604,13.288
2019-06-14T06:28:07,42.805,6.029,4330,1995,194.900,59.603,13.288
2019-06-14T06:31:07,42.805,6.029,4330,1995,194.819,59.580,13.289
2019-06-14T06:34:07,42.805,6.029,4330,1995,194.809,59.576,13.288
2019-06-14T06:37:07,42.805,6.029,4330,1995,194.867,59.594,13.289
2019-06-14T06:40:07,42.805,6.029,4330,1995,194.796,59.573,13.289
2019-06-14T06:43:07,42.805,6.029,4330,1995,194.837,59.585,13.289
2019-06-14T06:46:07,42.805,6.029,4330,1995,194.811,59.577,13.289
2019-06-14T06:49:07,42.805,6.029,4330,1995,194.803,59.575,13.289
2019-06-14T06:52:07,42.805,6.029,4330,1995,194.852,59.590,13.289
2019-06-14T06:55:07,42.805,6.029,4330,1995,194.867,59.594,13.289
2019-06-14T06:58:07,42.805,6.029,4330,1995,194.857,59.592,13.289
2019-06-14T07:01:07,42.805,6.029,4330,1995,194.857,59.591,13.289
2019-06-14T07:04:07,42.805,6.029,4330,1995,194.864,59.593,13.289
2019-06-14T07:07:07,42.805,6.029,4330,1995,194.897,59.603,13.289
2019-06-14T07:10:07,42.805,6.029,4330,1995,194.851,59.590,13.289
2019-06-14T07:13:07,42.805,6.029,4330,1995,194.897,59.603,13.289
2019-06-14T07:16:07,42.805,6.029,4330,1995,194.923,59.611,13.289
2019-06-14T07:19:07,42.805,6.029,4330,1995,194.936,59.617,13.290
2019-06-14T07:22:07,42.805,6.029,4330,1995,194.867,59.594,13.289
2019-06-14T07:25:07,42.805,6.029,4330,1995,194.840,59.587,13.290
2019-06-14T07:28:07,42.805,6.029,4330,1995,194.917,59.611,13.290
2019-06-14T07:31:07,42.805,6.029,4330,1995,194.911,59.608,13.289
2019-06-14T07:34:07,42.805,6.029,4330,1995,194.891,59.601,13.289
2019-06-14T07:37:07,42.805,6.029,4330,1995,194.888,59.601,13.289
2019-06-14T07:40:07,42.805,6.029,4330,1995,194.859,59.591,13.289
2019-06-14T07:43:07,42.805,6.029,4330,1995,194.858,59.591,13.289
2019-06-14T07:46:07,42.805,6.029,4330,1995,194.891,59.602,13.289
2019-06-14T07:49:07,42.805,6.029,4330,1995,194.955,59.621,13.289
2019-06-14T07:52:07,42.805,6.029,4330,1995,194.884,59.599,13.289
